NOAA 16 DEB, 41248

Orbit data source: Space-Track

NOAA 16 DEB, 41248 is space debris in SSO originally from a launch on Thu, 21 Sep 2000 UTC launched from the Air Force Western Test Range (AFWTR). Debris objects in space refer to the collection of defunct objects orbiting the Earth. Examples of debris include non-operational satellites, rocket bodies, and fragments generated from explosions, collisions, or faulty payload assembly.

Loading next visibility...
Identifier
41248, 2000-055EY
Orbit
SSO
Country
Flag of USUS
Related business
Manufacturer
Unknown
Mission
Spacecraft
Bus & Motor
Unknown
Mass
Unknown
Launch date (UTC)
2000-09-21 (25 years ago)
Launch vehicle
Unknown
Launch site
Air Force Western Test Range (AFWTR)
Object type
Payload
Rocket body
Debris
Shape & HBR
Unknown shape, 0.1 m
Radar Cross Section
Small (<0.1 m²)

Expand to show TLE details & history
Last TLE update: 6 days ago

TLE from 6 days ago
0 NOAA 16 DEB
1 41248U 00055EY  26028.78455422  .00008673  00000-0  42204-2 0  9992
2 41248  98.8605  40.6691 0070362 110.0875 250.7890 14.17110447513845
Epoch: 2026-01-28T18:49Z
TLE epoch observation values (Epoch: 2026-01-28T18:49:45.484Z)
Latitude
0.00002°
Longitude
-9.81705°
Altitude
855.069 km
Speed
7.416 km/s
True Right ascension
02h 42m 40s
True Declination
0° 00' 00"
Sunlit
Object was in daylight at epoch
Visualization orbit readout
Latitude
Unknown
Longitude
Unknown
Altitude
Unknown
Speed
Unknown
Apparent Right ascension
Unknown
Apparent Declination
Unknown
Sunlit
N/A
Visualization observer readout
Local Sidereal Time
13:41:50
Azimuth
Unknown
Elevation
Unknown
Doppler factor
Unknown
Orbital elements
Apogee altitude
883.045 km
Perigee altitude
781.577 km
Semi-major axis
7,210.448 km
Eccentricity
0.00704
Inclination
98.8605°
RAAN
40.6691°
Arg. of periapsis
110.0875°
True anomaly
250.02983°
Mean anomaly
250.789°
Eccentric anomaly
250.40919°
Mean motion
3.54487 °/min
Orbital period
101.56 mins
BSTAR
0.0042204
Loading maneuver chart data...
Computing Atmospheric mass density...
Loading historical data...
Loading historical data...
Loading historical data...
Loading historical data...
Loading historical data...
Loading historical data...
Loading historical data...

Documentation

Showing up to 5 results
|